Location: Kuppenheim
(48.8299°N, 8.2568°E)
Time: 09:45:49
(UTC+00:00)

USA 306 - Pass Details

Date: 20 June 2021
Orbit: 566 x 573 km, 54.0° (Epoch: 16 July)

Event Time Altitude Azimuth Distance (km) Brightness Sun altitude
Exits shadow 01:31:13 20° 219° (SW) 1,353 4.2 -12.7°
Maximum altitude 01:34:01 58° 145° (SE) 669 3.1 -12.5°
Drops below altitude 10° 01:38:12 10° 67° (ENE) 1,873 6.4 -12.2°
Sets 01:40:29 0° 63° (ENE) 2,771 7.5 -12.0°
